Theta_e
314 315 319 324 324 326 330 331 331 335 334 328 328 326 323 324 324 325 323 322 325 321 320 322 321 320 321 321 321 322 322 322 325 322 332 341 327 321 325 332 335 335 340 342 341 336 335 335 334 336 340 342 341 342 342 342 342 341 340 339 339 338 336 334 337 337 337 338 338 338 336 335 335 334 334 335 336 335 335 335 337 339 339 340 340 340 340 340 340 338 336 335 332 328 327 327 325
314 317 321 325 325 326 334 334 328 330 333 324 323 323 321 327 327 324 323 323 324 321 322 322 321 322 321 322 320 321 322 321 324 326 334 334 326 324 326 334 337 335 339 341 341 336 335 335 334 335 338 341 342 341 342 342 342 341 339 336 335 335 335 336 337 338 339 338 337 338 337 337 336 335 336 336 336 335 334 335 337 338 339 340 340 339 340 339 339 338 337 336 333 329 328 328 327
315 320 322 324 327 326 332 336 332 328 326 319 319 324 320 323 324 321 324 323 322 322 322 321 322 323 321 322 321 322 324 321 324 333 336 329 330 328 327 336 337 337 339 340 341 336 335 335 334 334 335 339 342 341 341 342 342 341 337 333 333 335 337 337 338 339 339 337 337 338 338 338 337 337 338 337 337 336 336 336 337 339 339 339 339 339 339 338 337 337 336 336 334 331 331 330 330
320 324 325 325 332 333 333 334 334 326 319 319 317 322 322 321 322 321 324 324 325 323 321 321 322 322 320 322 322 320 322 321 321 333 335 328 330 327 327 336 337 339 339 340 340 336 335 335 334 334 334 337 340 340 341 342 341 339 335 333 335 338 338 338 339 339 338 338 338 339 339 339 339 339 338 338 337 337 337 337 338 338 339 339 339 338 338 337 336 335 334 334 334 333 332 332 331
324 326 325 325 332 333 333 329 330 321 317 324 317 318 321 320 322 321 322 323 325 323 322 322 322 322 319 322 322 320 321 321 321 328 331 326 330 326 326 334 337 339 341 342 339 336 335 334 335 334 334 336 339 340 340 341 341 338 335 336 337 338 338 338 338 338 338 338 339 339 339 339 339 339 338 339 337 337 337 337 338 338 338 338 338 338 337 336 335 333 331 333 333 333 332 331 329
323 325 325 326 327 327 329 326 328 324 323 328 318 318 319 318 322 321 322 322 323 323 322 321 321 321 320 322 321 321 321 321 323 327 329 326 327 325 325 332 336 338 342 343 340 336 334 335 335 335 335 335 340 341 339 340 341 337 336 337 338 338 338 337 337 337 337 337 339 339 339 340 339 339 339 339 337 336 336 337 337 338 338 338 337 336 336 334 333 331 329 330 331 332 330 326 322
322 326 328 328 327 326 326 323 326 327 328 327 318 319 319 320 323 322 323 320 321 322 321 321 321 321 322 322 320 322 321 320 323 325 326 323 323 323 323 330 334 338 342 343 341 337 334 335 335 335 335 335 339 340 339 340 340 338 337 338 338 338 337 337 337 337 337 337 339 339 339 340 339 339 339 338 337 336 336 337 337 337 337 336 336 335 334 333 331 330 329 328 330 330 325 318 312
322 327 332 333 330 328 326 324 327 327 326 325 320 321 319 321 323 322 323 321 321 322 322 322 321 321 322 321 322 323 320 321 322 322 322 320 321 322 323 328 334 337 341 342 342 339 335 335 335 336 335 335 337 339 340 339 338 337 338 338 338 338 336 336 337 338 338 337 338 339 339 339 339 339 339 338 337 336 335 336 336 336 336 335 335 334 333 332 331 330 329 327 326 324 316 309 303
322 324 331 332 329 329 328 328 328 327 325 322 319 321 321 322 323 322 322 322 321 323 323 322 321 321 322 321 323 323 322 323 321 321 319 318 319 320 323 327 332 335 338 341 342 341 337 335 335 336 336 337 338 338 339 339 337 338 339 338 338 338 335 335 337 337 337 338 338 339 339 339 339 339 339 337 336 336 334 334 334 334 334 334 333 332 332 331 330 328 328 326 321 316 309 302 300
327 323 328 334 330 327 328 327 326 327 324 320 319 320 322 322 322 322 321 322 321 322 322 321 321 321 321 321 322 323 324 323 320 321 319 318 319 319 321 324 331 334 335 340 342 342 339 336 336 336 336 336 337 337 338 338 338 339 341 339 338 338 335 334 336 337 337 338 338 338 339 339 339 339 338 337 336 335 334 334 333 332 332 332 331 330 330 330 329 327 326 324 317 310 303 299 299
336 328 329 333 329 324 325 325 324 328 325 321 320 320 322 322 321 322 322 322 321 322 320 319 320 322 321 321 325 324 322 322 320 320 319 319 318 318 320 322 330 334 334 337 341 342 340 338 337 337 336 336 337 336 337 338 339 340 341 340 339 339 336 333 333 336 337 337 337 338 339 339 339 338 338 337 336 335 334 333 332 331 330 331 330 329 329 328 327 325 325 321 312 305 299 298 299
334 333 331 326 325 325 324 323 323 330 328 323 321 320 321 322 321 321 321 320 321 321 320 319 319 321 321 322 326 323 320 321 318 318 321 321 317 317 321 324 327 333 335 335 339 341 340 340 339 339 337 336 336 336 336 338 339 340 340 341 340 339 337 334 332 335 336 336 336 337 338 339 339 338 337 336 336 335 333 332 331 330 329 330 329 327 327 327 325 325 324 318 308 301 298 298 298
328 331 330 327 329 325 322 324 327 332 331 323 320 321 320 321 321 320 320 319 320 320 320 319 318 319 320 323 323 321 320 322 320 319 322 322 319 319 323 326 327 331 335 334 337 340 340 341 340 340 338 336 336 336 336 337 339 339 339 339 339 339 337 335 333 334 335 336 335 336 338 338 338 338 337 336 335 334 333 331 329 327 328 329 327 326 326 325 324 324 321 314 306 299 298 298 298
326 328 325 328 332 326 324 326 326 325 325 323 319 321 319 319 321 320 319 318 320 320 319 319 318 317 319 321 323 326 323 322 323 320 320 322 322 324 325 327 329 331 334 334 336 338 339 340 340 340 339 337 336 336 336 337 337 338 338 338 338 338 337 336 334 334 334 336 335 336 338 338 338 338 337 336 335 334 332 330 328 325 325 327 326 325 325 324 324 323 319 312 305 298 297 298 298
324 331 327 327 331 329 328 325 327 324 321 324 319 318 319 318 321 320 319 317 319 320 318 317 316 317 318 318 324 331 324 321 324 319 321 324 325 328 329 328 329 332 334 335 336 337 338 338 339 339 338 338 337 336 336 336 337 338 338 338 338 337 337 337 336 335 334 335 336 336 338 338 338 338 337 336 334 333 331 329 328 325 323 325 325 324 324 324 323 322 317 310 302 297 298 298 298
326 336 332 327 329 328 328 324 328 326 321 324 319 318 319 317 319 319 318 317 319 319 317 317 316 317 319 317 320 325 322 321 322 320 323 327 326 329 333 331 330 332 334 335 336 336 337 337 337 337 338 338 337 336 336 336 337 338 338 338 337 336 337 337 336 335 335 336 336 337 338 338 337 337 336 335 334 332 331 329 328 326 323 324 325 324 324 323 323 320 313 307 300 297 298 298 298
332 340 330 327 331 328 330 324 321 321 320 322 319 318 319 318 318 317 317 317 318 319 318 318 317 317 318 318 317 319 321 321 320 320 325 328 328 328 332 334 332 333 334 335 336 336 336 336 335 336 337 337 337 336 336 337 337 338 338 338 337 336 337 337 336 335 335 336 337 338 337 337 337 336 336 334 333 332 331 329 328 327 323 323 324 324 323 323 322 318 312 305 299 298 297 297 298
334 336 326 326 331 328 329 323 318 319 319 319 318 318 318 317 317 317 317 317 319 318 318 317 316 316 316 316 315 318 321 320 319 320 324 326 328 329 331 333 332 332 333 335 335 335 335 335 335 334 335 335 335 335 336 337 337 338 338 338 338 337 337 337 336 335 335 336 336 337 337 337 337 336 335 334 333 332 331 329 328 327 323 322 323 323 323 323 322 318 315 307 298 297 297 298 298
332 331 326 331 336 331 326 320 318 318 317 320 320 318 318 317 316 317 317 318 318 317 317 316 316 317 316 314 313 318 320 319 320 320 321 323 325 327 327 330 331 330 331 333 333 334 334 334 334 334 334 333 332 332 334 337 337 338 338 338 338 337 337 337 336 334 335 336 336 336 336 336 336 336 335 334 333 331 330 329 327 327 324 321 321 322 322 323 321 318 316 308 297 298 297 297 298
330 327 325 335 334 327 323 320 318 317 318 320 320 319 319 319 318 316 316 318 319 318 318 317 318 317 318 316 313 318 321 320 321 320 320 321 322 323 323 326 328 327 324 325 327 330 333 333 333 334 334 333 331 331 334 337 337 337 338 338 338 338 337 337 336 334 334 335 335 335 336 336 336 335 335 333 332 331 330 328 327 326 325 322 319 321 321 322 321 317 316 307 297 298 297 297 298
327 325 327 335 329 321 323 322 319 319 320 319 320 320 319 319 317 316 316 318 318 318 318 317 318 316 316 317 315 317 318 318 320 321 320 320 321 321 321 321 322 321 319 320 322 325 330 331 332 334 334 334 333 332 334 336 336 336 337 338 338 338 337 337 335 334 334 335 335 335 335 335 335 334 333 332 330 329 329 327 327 326 325 324 320 319 320 321 319 316 314 305 297 297 296 297 298
323 323 326 330 324 321 321 321 319 320 320 320 321 320 318 318 317 316 316 317 316 316 317 317 318 316 315 316 314 315 317 318 318 318 319 319 320 321 321 321 320 321 321 321 321 322 324 327 330 332 334 334 334 333 333 335 336 336 337 338 338 337 337 336 336 335 334 334 335 335 335 335 333 332 331 329 329 328 327 327 326 326 325 325 321 317 318 320 317 313 309 302 298 297 296 297 298
322 323 322 323 321 319 318 317 318 318 318 319 319 319 318 318 318 316 316 316 316 315 317 317 316 315 314 314 314 316 320 321 316 315 318 318 318 319 320 320 321 321 322 323 323 322 322 324 326 329 332 334 334 334 333 334 336 336 336 336 335 336 336 336 336 335 334 335 335 335 335 334 333 331 330 328 328 327 327 327 326 326 325 324 322 315 315 318 315 310 306 302 298 296 296 298 299
321 322 322 322 321 319 318 317 317 317 317 318 319 318 318 319 319 317 316 316 315 315 315 316 314 313 313 314 316 318 320 318 314 314 316 318 318 319 319 319 319 320 321 322 323 324 324 323 324 326 330 332 334 334 334 334 334 335 335 335 334 334 335 336 335 335 335 334 335 334 334 333 332 330 329 328 327 327 327 326 325 325 323 322 320 315 312 316 314 309 305 302 299 296 296 297 298
318 318 320 319 319 319 318 317 316 316 316 316 317 317 317 319 319 317 317 316 315 314 314 315 314 313 314 314 315 317 319 316 313 313 314 315 317 318 318 318 318 319 320 321 322 324 324 324 324 325 327 330 332 334 334 334 334 335 335 335 334 333 333 334 333 334 334 335 334 334 333 331 330 329 329 328 327 327 326 326 325 324 323 319 317 314 312 314 313 308 304 302 300 297 296 297 297
318 316 317 316 316 316 315 316 315 315 314 314 315 315 315 317 317 316 316 316 316 315 314 314 314 315 315 314 316 315 318 317 312 313 314 315 316 317 318 318 318 319 319 319 320 323 324 326 326 325 325 327 330 333 334 334 334 334 335 335 334 333 333 332 332 333 334 334 334 333 332 331 330 329 328 328 327 327 326 325 325 324 323 318 313 312 311 313 312 307 303 302 300 297 297 297 297
316 315 316 315 316 315 314 315 314 314 314 313 313 314 314 315 316 316 316 316 315 315 314 314 314 316 316 315 316 315 315 315 312 313 313 314 315 316 317 317 317 318 318 319 319 321 323 326 326 326 325 326 329 332 332 333 333 334 334 334 333 333 333 332 332 332 333 333 333 332 332 330 330 329 328 328 327 326 326 325 325 323 322 318 313 311 312 312 311 307 304 302 300 297 297 297 297
315 315 315 316 315 315 314 313 314 313 313 314 314 313 313 314 316 315 315 315 315 314 314 314 313 314 316 316 315 316 315 312 310 312 312 312 313 315 316 316 317 317 318 318 318 320 323 326 326 326 326 327 328 330 331 332 332 332 333 333 332 332 332 332 332 331 332 332 331 331 331 331 330 329 328 327 327 326 326 325 324 323 321 317 313 311 312 312 310 309 308 305 301 298 296 297 296
314 314 315 316 314 314 314 314 314 312 313 315 314 313 315 315 316 316 316 315 314 314 314 314 314 314 314 315 316 317 314 310 310 310 310 310 311 313 313 313 315 317 318 318 318 319 322 324 326 327 327 327 328 329 331 331 332 332 332 332 332 331 331 331 331 330 330 331 331 330 330 330 330 329 328 327 326 326 325 325 323 322 320 317 314 313 312 312 311 311 312 309 304 299 297 296 296
315 314 314 315 315 315 315 313 314 313 313 316 314 316 320 318 316 316 315 314 314 315 316 315 315 314 313 314 317 316 311 309 310 309 309 309 309 310 310 310 311 313 315 318 318 318 319 322 325 327 327 328 328 328 330 331 331 332 331 331 331 331 331 330 330 330 330 330 330 330 329 329 329 328 328 326 326 325 325 324 323 321 319 317 315 314 314 313 312 313 314 310 304 299 297 296 296
314 313 316 316 315 320 319 314 316 315 313 315 314 316 320 320 318 318 316 315 314 315 316 315 314 313 314 314 314 312 309 309 309 308 309 308 308 308 308 309 309 311 313 317 319 319 318 321 324 326 327 328 328 328 329 330 331 331 331 330 330 331 330 330 330 330 330 329 329 329 328 328 328 328 327 326 325 325 324 323 322 320 318 318 316 316 316 315 314 314 314 310 303 299 298 297 297
315 314 322 322 317 321 320 315 317 316 314 314 313 317 319 317 317 318 318 317 314 315 315 313 313 313 313 312 311 309 309 308 307 307 307 306 307 307 307 308 308 310 312 315 318 319 319 320 323 325 326 328 328 329 329 329 330 331 330 330 329 330 330 329 330 330 330 329 328 328 328 328 328 328 327 326 325 325 324 323 322 320 318 318 317 317 317 316 314 314 313 309 303 299 298 297 297
320 316 321 323 318 318 319 319 319 317 315 313 313 316 317 317 317 318 318 317 315 315 314 312 313 313 311 310 309 309 308 306 306 306 305 305 306 306 306 307 308 309 310 313 316 318 319 320 322 323 325 326 327 328 328 329 329 329 329 329 328 329 329 329 329 329 329 328 328 328 327 327 327 327 326 325 325 324 324 323 321 320 318 318 318 318 317 316 314 313 311 307 302 299 298 298 298
325 320 319 322 319 317 318 321 320 317 316 315 314 314 314 316 317 317 317 316 315 315 313 313 312 311 310 310 309 308 306 305 305 304 304 304 304 305 305 306 307 308 309 311 314 317 319 319 320 321 322 324 325 326 327 326 327 327 327 327 327 327 328 328 328 328 328 328 327 327 327 326 326 326 326 325 324 324 323 322 321 319 318 318 318 318 317 316 314 312 309 305 301 299 298 298 298
324 323 320 321 320 318 319 319 319 318 316 316 317 315 315 315 315 315 315 314 313 314 313 312 312 311 310 310 308 307 306 305 304 303 303 303 303 304 304 305 306 306 308 309 311 314 315 315 315 316 318 320 322 325 325 325 325 325 325 325 325 326 326 327 327 327 327 327 326 326 325 325 325 325 325 325 324 323 323 321 321 319 318 318 317 317 316 314 312 310 308 304 301 299 298 298 298
319 320 318 319 319 318 318 317 318 318 317 317 318 317 316 315 316 315 315 314 313 313 313 312 311 311 310 308 307 306 305 304 303 302 302 302 302 303 303 304 304 305 307 307 309 310 311 312 312 313 315 317 319 322 323 323 324 324 324 324 324 324 324 324 325 325 325 325 325 324 324 324 324 324 324 324 324 323 322 321 320 318 317 316 316 315 314 313 311 309 307 304 301 299 298 298 298
315 316 317 318 318 318 317 317 319 318 316 319 319 317 316 316 316 316 314 314 313 313 313 313 311 310 308 307 306 305 304 304 303 301 301 301 301 302 302 302 303 304 305 306 307 307 308 309 310 310 313 315 317 319 320 321 322 322 322 322 322 322 322 323 323 323 323 323 322 322 322 322 322 322 322 323 323 323 322 321 319 317 316 316 315 314 313 312 311 309 306 303 301 299 298 297 297
315 316 318 319 320 319 317 316 317 315 316 320 320 316 316 315 315 315 314 313 312 313 314 312 310 308 307 306 305 304 304 303 302 301 301 300 300 301 301 301 301 302 303 304 305 306 307 308 308 309 309 312 314 315 317 319 319 319 320 320 320 320 321 321 321 321 321 321 321 321 321 321 321 321 321 320 321 321 321 320 318 317 316 314 314 313 312 311 309 308 305 302 300 299 298 297 297
317 319 320 320 321 320 320 319 317 315 315 320 320 316 316 316 315 314 313 312 311 311 311 309 308 307 306 305 304 304 303 302 301 301 300 300 300 300 300 300 300 300 301 302 303 304 305 306 307 307 308 308 309 311 313 314 315 316 316 317 318 319 319 319 319 319 319 319 319 319 319 318 319 318 319 318 318 319 319 319 318 317 315 313 312 312 311 310 309 307 305 303 300 298 297 297 297
320 320 320 322 321 319 321 321 319 316 315 317 318 318 318 316 315 313 311 311 310 308 308 307 307 306 305 304 303 303 302 302 301 300 300 299 299 299 299 299 299 299 299 300 301 302 303 304 305 306 307 307 307 308 309 309 310 311 312 313 314 315 316 316 317 317 317 317 317 317 317 317 316 316 316 316 316 316 317 317 317 316 314 312 311 310 310 309 308 307 304 303 300 297 297 297 297
324 323 321 322 320 318 320 320 318 318 319 319 316 321 327 322 317 315 311 310 309 307 307 306 305 305 304 304 303 302 302 301 301 300 299 298 298 298 298 299 299 298 298 299 299 300 301 302 303 304 305 305 306 307 307 307 307 307 308 309 309 310 310 310 311 311 311 312 312 313 313 313 313 313 313 313 314 314 314 315 315 315 313 312 310 309 309 308 307 307 305 302 300 298 297 296 297
326 327 323 321 321 320 322 323 321 321 324 320 314 322 333 329 322 319 312 310 309 307 306 305 305 304 303 303 302 302 301 300 300 299 298 298 297 297 298 298 298 298 298 298 298 299 299 300 302 303 303 304 305 305 306 306 306 307 306 306 306 306 306 306 306 307 308 308 308 308 308 308 308 309 309 310 310 311 311 312 313 313 312 311 309 308 308 307 306 306 304 303 300 299 298 296 297
322 325 323 324 323 320 323 322 320 324 325 319 314 319 325 321 319 319 314 311 310 307 306 305 304 303 302 302 301 301 300 300 299 298 297 297 296 296 296 297 297 297 297 297 297 298 298 299 300 301 302 302 303 304 305 305 305 306 305 305 305 305 305 304 304 305 306 307 307 307 306 306 305 305 306 306 307 308 309 309 310 310 311 310 308 306 306 306 305 305 304 303 301 300 298 296 296
324 323 321 323 322 317 319 316 317 324 322 320 318 316 317 318 317 316 315 314 311 307 306 305 303 302 301 301 300 299 299 298 298 298 297 296 295 295 295 295 296 296 296 296 297 297 297 297 298 299 299 300 301 302 303 303 303 304 304 304 304 303 303 304 304 304 304 305 305 305 305 304 304 304 303 304 304 305 306 306 307 307 308 308 307 306 305 304 304 304 303 302 301 300 299 297 296
326 322 316 317 316 315 318 315 318 321 317 322 325 316 316 323 324 318 315 317 313 308 307 304 303 302 301 300 299 298 298 297 297 296 295 295 294 294 294 294 295 295 295 295 295 296 296 296 297 297 297 297 298 299 300 301 301 302 302 302 302 302 302 303 303 303 303 303 303 303 303 303 303 303 302 302 302 302 302 303 304 304 305 305 306 306 305 304 302 302 302 301 300 300 299 298 296
321 320 318 321 319 317 317 316 318 318 317 323 325 319 318 326 333 323 315 318 317 310 307 304 303 302 300 300 298 297 297 296 296 294 294 293 293 294 293 293 294 294 294 294 294 295 295 296 296 296 295 296 296 296 297 298 299 299 299 300 300 300 301 301 301 302 302 302 302 302 302 302 302 302 302 302 301 301 301 301 301 302 302 302 303 304 304 304 302 301 301 300 300 299 299 298 297
317 320 324 326 325 322 319 320 321 316 321 328 325 321 318 323 336 328 316 319 317 309 307 304 302 301 299 298 297 296 296 296 295 294 292 293 293 293 293 293 293 293 293 293 293 293 294 294 294 295 294 294 294 295 295 296 296 297 297 298 298 298 299 299 299 299 300 300 300 300 301 301 301 301 301 301 301 301 300 300 300 300 300 300 301 301 302 302 302 302 301 300 299 298 298 298 297
317 321 324 324 327 329 323 322 322 319 327 335 327 323 318 320 333 326 314 315 312 309 307 303 302 301 299 298 297 296 295 295 295 294 293 292 292 292 292 292 292 292 293 292 292 292 292 293 293 293 293 293 293 294 294 294 294 295 295 296 296 296 296 296 297 297 297 298 298 299 299 299 299 299 299 299 299 300 300 300 300 300 300 299 299 300 300 300 301 301 301 300 299 298 297 298 297
318 320 323 324 326 329 326 324 324 323 329 331 325 324 320 320 326 319 312 310 308 308 306 302 301 299 298 298 297 296 295 295 294 294 293 291 291 291 291 291 291 291 292 292 292 291 291 291 292 292 292 291 291 292 292 293 293 293 294 294 294 294 294 294 295 295 295 296 296 297 297 297 298 298 298 298 298 298 299 299 300 300 299 299 299 299 298 299 299 299 300 300 300 299 298 297 297
316 318 322 326 325 326 328 326 323 323 327 326 322 322 323 325 322 312 307 304 303 304 302 300 300 298 298 298 297 297 296 295 294 294 293 291 290 291 291 291 291 291 291 291 291 291 290 290 290 291 291 290 290 290 290 291 291 292 292 292 292 292 293 293 293 293 293 294 294 294 295 295 295 296 296 297 297 297 298 298 299 299 299 299 298 298 298 298 298 298 298 298 299 299 298 298 297
314 319 323 326 328 327 326 325 323 324 329 328 323 321 327 331 319 305 302 302 300 301 300 299 299 298 298 298 297 297 296 296 295 295 293 290 290 291 290 290 290 290 290 290 290 289 289 289 289 289 290 289 289 288 288 289 289 290 290 290 290 290 290 291 291 291 291 291 292 293 293 293 293 294 294 295 295 296 296 297 298 298 298 298 298 298 297 297 297 297 297 298 298 298 298 298 297
315 318 321 323 327 326 323 324 324 323 326 326 323 325 327 320 309 303 303 301 300 300 299 299 299 298 298 298 297 297 296 296 296 296 294 290 290 290 290 290 290 290 289 289 289 288 288 288 288 288 288 288 288 287 287 287 287 287 287 287 287 287 287 288 288 288 288 289 289 289 290 290 291 291 292 293 294 294 295 295 296 296 297 297 297 297 297 297 297 296 297 297 297 297 297 297 297
319 318 322 325 326 323 322 325 324 320 322 322 321 324 321 312 308 305 303 302 301 300 299 299 299 298 299 298 298 297 296 295 295 295 293 290 289 290 290 290 290 289 289 289 288 288 288 288 287 287 287 287 287 287 287 287 286 286 286 286 286 286 286 286 286 286 286 286 286 287 287 287 287 288 288 289 290 291 293 293 294 295 295 295 295 295 295 296 296 296 296 296 296 296 296 297 297
320 320 324 323 321 322 322 323 324 322 322 322 320 322 320 317 314 307 303 304 302 300 299 299 298 299 299 298 297 297 296 295 295 294 291 289 289 290 289 290 290 290 290 289 289 288 288 287 287 287 287 287 287 287 287 287 287 286 286 286 286 286 286 286 286 285 285 285 285 286 286 286 286 286 286 286 287 288 289 290 291 292 293 294 294 294 294 294 295 295 295 295 295 295 295 296 296
317 319 321 319 318 322 322 322 323 321 320 321 323 322 320 321 319 310 306 306 302 300 300 299 299 299 299 298 297 297 296 295 295 295 293 290 290 290 290 290 290 290 290 290 290 289 288 288 287 287 287 287 287 287 287 287 287 287 287 287 286 286 286 286 286 286 286 286 286 286 286 286 286 286 286 285 286 286 286 286 287 288 289 291 292 293 293 293 293 294 294 294 294 295 295 295 295
316 317 319 319 319 320 320 321 323 321 319 319 321 319 319 320 317 311 309 305 301 300 300 300 300 299 299 300 298 297 297 296 295 296 294 291 290 290 290 290 291 291 291 291 291 290 289 288 288 288 287 287 287 287 287 287 287 287 287 287 287 287 287 287 287 287 287 287 287 287 287 287 287 287 286 286 286 286 286 286 286 286 286 287 288 289 291 292 292 292 293 293 293 294 294 294 294
318 318 318 318 319 320 319 319 320 321 320 320 319 319 320 317 309 308 308 304 300 301 302 302 301 300 300 300 299 299 298 296 296 296 294 292 291 291 291 291 291 291 291 291 291 290 290 289 288 288 288 288 287 287 287 287 287 287 288 287 287 287 287 287 287 287 287 287 287 287 288 287 287 287 287 287 287 287 286 286 286 286 286 285 286 286 287 288 290 291 292 292 292 293 293 294 294
323 322 321 322 321 321 319 318 319 319 320 320 318 319 321 313 306 305 305 303 302 302 303 304 302 301 301 299 299 298 297 297 297 296 293 292 292 292 292 292 291 291 290 290 290 289 289 289 288 288 288 288 288 287 287 287 287 287 287 287 287 287 287 287 287 287 287 287 287 287 287 287 287 287 287 287 287 287 287 287 287 286 286 286 286 286 285 285 286 287 289 290 291 291 292 292 293
Wind_Speed
7 7 6 7 10 12 9 2 3 3 3 1 4 1 3 2 2 3 3 2 2 1 2 1 1 1 0 2 5 5 5 5 5 4 3 4 5 12 18 16 14 19 20 21 22 27 28 26 25 24 24 23 22 21 20 20 18 18 17 17 16 15 14 14 14 13 12 12 11 10 8 8 8 8 8 8 8 8 9 10 8 8 8 8 7 8 8 8 7 6 6 7 6 6 7 7 8
8 7 6 7 7 5 3 2 4 3 5 3 4 1 2 3 4 3 3 3 2 4 3 2 1 1 1 1 3 1 3 5 4 3 2 4 8 15 19 14 16 20 20 21 22 27 29 27 27 25 25 24 23 22 20 20 18 17 16 16 16 16 15 15 14 13 12 12 11 10 9 9 8 8 8 8 8 8 9 8 8 8 8 8 8 8 8 7 6 4 4 6 5 4 4 3 4
7 7 8 8 4 1 1 3 3 1 4 2 3 3 1 4 2 4 5 5 6 5 2 0 2 0 2 3 1 2 3 3 3 2 1 6 8 13 19 15 17 19 20 21 22 28 30 29 28 26 26 25 23 23 21 20 18 17 16 16 17 17 16 15 14 13 13 12 11 10 9 9 9 9 9 9 8 8 9 8 8 8 8 8 8 8 7 5 4 3 2 4 5 3 2 1 2
8 7 9 7 4 3 3 3 2 3 1 1 1 5 2 3 2 3 5 6 7 4 2 1 1 1 2 0 2 2 3 2 3 4 3 8 7 10 19 18 18 19 19 20 21 27 30 29 28 27 27 26 25 23 22 21 19 17 16 17 18 17 16 15 14 14 13 13 12 11 10 9 9 10 10 10 10 9 9 9 9 8 8 8 8 7 7 4 3 2 1 3 5 3 1 1 2
8 7 7 3 3 1 2 2 1 3 2 3 3 4 1 3 2 0 2 4 4 5 4 2 0 3 1 3 2 2 3 1 2 7 8 11 7 9 18 20 19 19 19 18 20 27 30 29 28 27 27 27 25 24 24 22 20 19 18 18 18 17 16 15 15 14 13 13 12 11 10 10 10 10 11 11 10 10 10 10 9 9 9 8 7 7 5 2 1 1 2 3 3 2 0 2 3
9 9 4 1 1 1 2 1 1 1 5 4 4 4 2 3 2 2 4 1 2 3 4 2 1 1 1 3 2 2 3 2 3 7 9 12 9 9 17 21 21 19 18 17 18 25 29 29 28 27 27 27 25 24 25 23 21 20 19 19 18 17 16 16 15 14 14 14 12 11 11 11 11 11 12 12 11 11 10 11 10 9 9 8 7 6 4 1 1 2 2 2 2 2 1 4 5
9 7 2 2 2 1 4 1 3 3 5 4 6 3 2 2 3 4 5 1 2 2 1 1 2 3 1 3 1 1 1 3 5 6 8 10 10 11 17 21 21 20 18 16 18 22 28 29 29 28 27 27 25 24 26 24 22 21 20 19 18 18 17 16 15 15 14 14 13 12 12 11 12 12 13 13 12 11 11 11 10 10 9 8 7 6 4 2 2 1 1 2 4 3 2 4 5
5 2 1 4 2 2 2 2 3 3 4 3 5 3 3 3 4 4 3 1 1 1 1 2 3 3 4 3 1 3 3 3 4 8 8 8 9 11 17 21 21 22 18 16 16 19 25 28 28 28 27 27 25 25 25 24 23 22 21 20 19 18 18 16 15 15 14 14 13 12 12 13 13 13 14 13 12 12 12 11 10 10 9 7 7 6 5 3 3 2 0 3 5 2 3 4 3
2 1 2 3 2 3 2 3 4 3 3 3 1 2 4 3 4 4 1 3 2 1 1 3 4 2 4 5 2 5 2 5 7 9 9 8 9 11 17 21 21 22 19 16 16 17 21 26 29 28 27 27 25 25 25 24 23 22 21 21 19 19 18 16 16 15 15 14 14 13 13 14 14 15 14 14 13 12 12 11 9 9 9 7 6 6 5 4 3 2 1 4 5 1 3 2 1
3 1 2 2 2 3 4 3 3 3 4 2 2 2 4 3 3 3 1 3 2 2 2 4 4 1 3 4 4 4 1 8 9 10 10 9 9 10 16 20 19 20 20 18 17 17 18 23 27 27 27 27 26 25 24 24 24 22 21 21 20 19 19 17 16 16 16 16 14 14 14 15 15 16 15 14 14 12 11 11 9 8 8 8 7 6 5 5 4 3 2 4 3 2 2 2 3
3 2 2 3 4 2 3 4 4 5 6 3 3 3 2 4 3 2 2 3 4 1 2 0 1 3 1 3 4 2 5 10 9 10 11 10 10 11 14 18 19 17 19 20 18 18 18 20 23 25 27 28 27 26 25 24 24 24 23 22 21 20 19 18 18 17 17 17 16 15 16 15 16 17 15 15 14 11 11 10 10 8 8 8 7 5 5 5 5 4 4 5 2 2 2 4 5
3 3 3 3 0 2 3 4 6 6 6 3 2 5 1 5 4 2 3 3 4 4 1 1 0 2 1 3 4 1 8 10 9 9 11 11 10 12 14 17 18 16 17 20 20 19 19 20 22 24 25 27 28 27 26 26 25 25 24 23 21 20 19 19 18 18 18 18 17 16 16 16 18 18 16 15 14 12 11 10 10 8 8 8 7 7 6 6 6 6 7 6 1 1 4 5 6
2 1 5 1 3 1 3 3 5 4 6 2 1 5 1 4 1 2 2 3 5 5 2 4 0 2 1 4 3 1 6 7 9 10 11 11 10 12 14 17 18 16 16 20 22 21 20 21 23 24 24 26 27 28 27 27 26 26 25 23 22 21 19 20 19 19 19 18 18 18 17 17 19 18 16 15 14 13 11 10 9 8 8 9 8 8 8 7 7 8 9 6 1 3 5 6 6
1 0 4 0 2 1 3 2 3 2 3 4 2 4 2 1 3 3 3 4 6 1 3 6 3 2 3 3 3 4 6 9 11 11 11 11 12 12 14 17 19 18 18 21 22 22 21 21 23 24 25 26 27 29 28 28 27 26 25 24 23 22 20 20 20 20 20 19 19 18 18 18 19 19 18 16 14 12 11 10 9 7 9 10 9 9 9 9 8 10 10 5 3 4 6 7 6
1 0 4 1 3 3 2 3 2 3 2 5 3 2 1 1 3 3 1 1 6 4 2 4 3 2 3 2 4 5 9 15 14 12 12 11 13 14 13 17 19 20 21 22 22 23 22 22 23 25 26 27 28 29 30 29 29 27 26 25 24 23 21 21 20 20 20 20 19 18 19 19 19 19 18 16 14 13 12 11 10 8 9 10 10 10 9 10 10 11 10 7 4 6 7 7 6
3 3 4 1 2 2 2 2 1 3 3 5 3 1 2 4 1 2 3 3 4 4 1 3 2 3 4 4 9 8 9 17 16 14 14 12 13 15 13 14 18 20 21 22 23 23 23 23 23 25 27 28 28 30 31 31 30 29 27 26 25 23 22 21 21 21 20 20 19 18 19 20 19 19 18 16 15 13 13 13 12 10 9 11 11 11 11 10 10 11 10 8 6 7 7 7 7
3 4 4 1 2 1 3 1 2 0 4 4 4 0 3 5 3 0 3 1 3 6 4 5 4 4 5 10 15 10 11 17 17 16 15 13 14 15 14 13 17 20 21 22 24 24 23 23 24 25 27 29 29 30 31 32 31 30 29 28 26 25 23 23 22 22 21 20 19 19 20 21 20 20 18 17 16 15 14 14 13 12 11 12 13 13 12 11 11 11 10 8 7 8 7 7 7
4 3 2 1 3 3 4 2 2 1 3 4 4 1 5 1 4 2 3 3 3 7 7 5 5 7 12 19 15 7 13 16 17 17 16 14 13 14 15 16 18 21 23 23 25 26 26 25 24 25 27 28 29 30 32 33 32 31 30 29 27 26 25 24 24 23 22 21 21 21 22 22 21 20 19 18 17 16 16 16 14 13 13 14 15 14 12 11 12 12 10 9 8 8 8 8 8
3 3 2 3 5 5 4 3 5 3 3 5 4 3 4 1 4 1 2 7 5 7 9 5 6 9 13 17 7 8 15 17 18 18 16 16 16 16 17 18 20 22 24 25 26 28 28 27 26 26 27 27 28 30 32 33 34 32 30 30 29 28 27 26 25 24 23 23 23 23 23 23 22 21 20 19 19 18 18 17 16 15 14 16 16 15 14 13 13 12 11 10 9 8 8 8 8
2 3 2 6 6 5 6 6 6 4 3 3 4 4 4 5 4 1 3 8 7 7 9 6 10 10 9 10 2 11 15 15 17 17 16 17 19 19 18 20 22 24 24 25 26 27 29 29 28 28 27 27 27 29 32 34 34 33 31 31 30 29 28 28 27 26 25 25 25 25 24 23 23 22 21 21 20 19 19 18 17 16 16 16 17 17 16 15 14 13 12 11 9 9 9 8 9
1 4 5 7 4 5 7 7 8 6 3 3 4 5 7 6 2 2 4 7 7 7 8 8 14 14 9 8 5 8 13 13 15 16 16 17 19 21 21 21 22 22 22 23 25 27 28 29 30 30 29 28 28 29 31 34 34 33 33 32 31 30 30 29 29 28 27 27 27 26 25 25 24 23 22 22 21 21 20 20 19 18 18 18 18 19 19 18 17 16 15 12 10 10 9 9 10
2 4 7 7 4 4 7 6 7 6 5 5 5 6 6 4 4 4 4 7 8 7 8 10 13 14 10 9 9 5 9 11 13 15 18 18 19 21 22 23 21 21 21 23 25 25 27 29 30 31 31 30 29 30 31 33 34 34 34 33 32 31 31 31 30 30 29 29 29 28 27 26 25 24 24 23 22 22 22 22 21 21 21 20 20 21 21 21 20 18 16 13 11 11 10 11 11
3 5 5 7 6 5 6 5 6 6 6 6 5 4 3 5 8 5 5 10 13 10 10 11 12 15 14 9 8 8 8 9 11 16 20 21 21 23 24 24 23 22 22 24 24 24 25 27 30 32 33 32 31 31 31 32 34 34 34 34 33 33 33 33 32 32 31 31 30 29 29 28 27 25 25 24 24 24 23 23 23 22 22 22 22 23 23 23 22 20 17 14 13 12 11 12 11
5 5 5 7 7 5 6 6 6 6 6 7 5 5 3 5 8 3 5 13 15 13 10 11 14 15 14 9 7 10 11 10 12 17 21 22 25 26 25 24 23 23 23 23 24 25 26 26 29 32 34 34 34 33 33 33 34 34 34 33 33 33 34 34 34 34 33 32 32 31 30 29 28 27 26 25 25 24 24 24 23 23 22 22 23 25 25 25 24 21 18 15 14 14 13 13 11
5 5 4 3 4 5 7 7 8 8 7 6 7 10 8 8 6 6 12 16 16 15 10 10 13 13 11 9 10 10 10 11 14 18 19 21 24 25 24 23 22 21 23 24 25 26 27 26 27 30 32 35 35 34 34 35 35 35 35 34 34 33 34 34 34 34 34 34 32 31 31 30 29 28 28 27 26 26 25 24 24 23 23 22 24 26 26 26 25 22 19 17 16 16 16 14 12
3 3 3 4 5 6 7 7 10 10 8 6 7 13 11 6 5 8 13 16 15 12 9 9 9 11 10 9 11 10 9 10 12 16 17 18 18 20 21 20 19 21 23 24 24 26 27 26 27 28 30 33 35 35 35 35 35 36 36 36 35 34 34 33 33 34 34 34 34 32 31 31 30 29 29 28 28 28 27 25 25 24 23 23 25 26 27 26 25 23 21 19 18 18 17 15 14
3 5 6 6 7 8 6 7 13 11 9 9 8 13 14 4 3 6 10 12 12 9 9 9 6 9 11 8 9 8 7 9 12 14 14 14 13 17 20 19 19 20 22 24 24 25 26 27 27 27 28 30 33 35 36 35 35 36 36 35 34 34 33 33 32 33 33 33 33 33 33 31 30 30 29 29 30 29 28 27 26 25 24 24 25 27 27 26 25 23 21 19 19 19 18 16 15
3 4 8 9 8 10 9 9 14 9 5 8 9 11 12 1 5 9 13 13 10 9 11 11 8 9 10 9 8 5 6 10 12 10 9 10 7 11 14 14 18 21 21 22 23 23 25 26 26 26 27 29 32 34 35 35 35 35 35 34 33 32 31 30 31 31 32 32 31 32 33 33 31 30 30 30 30 30 29 27 26 25 25 25 25 26 26 25 24 23 21 19 19 19 18 17 16
4 3 5 10 7 9 13 10 12 7 3 5 8 4 8 3 8 12 14 13 9 9 11 12 10 9 8 7 6 6 7 12 17 17 16 18 19 14 12 12 8 11 14 16 18 19 22 24 25 25 26 28 30 32 33 34 33 33 33 33 33 31 28 28 29 30 30 30 30 30 31 32 32 31 30 30 30 30 29 27 27 26 25 24 25 25 25 24 24 23 21 19 19 19 20 18 17
5 3 0 7 6 6 12 7 7 6 3 5 8 1 6 8 11 12 12 10 7 8 9 9 9 7 5 5 6 6 10 16 18 21 23 26 27 27 27 26 21 14 7 7 10 13 16 21 23 24 24 26 28 29 31 31 31 31 30 30 31 31 29 28 28 29 28 27 28 29 29 31 31 31 31 31 30 29 29 27 27 26 25 24 25 25 25 24 25 24 22 21 20 21 21 20 20
4 3 1 3 2 6 10 6 5 4 3 4 8 3 6 9 11 11 10 8 6 7 10 11 8 6 6 6 6 7 12 15 19 24 27 28 28 30 30 29 28 25 17 9 4 6 10 14 18 21 22 24 25 27 29 29 29 29 27 26 27 29 30 28 27 28 27 26 26 28 28 29 30 31 31 31 30 30 30 28 27 27 25 25 25 26 25 25 25 25 24 23 22 22 21 21 21
2 1 3 2 3 5 10 8 6 4 3 1 5 4 5 8 10 11 10 8 7 8 12 12 7 7 7 6 8 9 9 15 22 26 27 27 29 30 31 30 29 28 25 18 10 4 2 6 11 15 17 20 22 23 25 25 26 26 25 23 22 24 27 27 26 27 27 25 25 26 27 28 29 30 31 31 31 30 30 29 28 27 26 26 27 27 27 27 27 27 26 25 25 24 23 23 22
2 2 3 4 4 3 6 7 4 3 2 2 2 4 4 5 8 11 10 9 8 9 14 9 6 7 6 8 9 9 8 13 18 23 26 26 28 29 30 30 29 28 27 23 17 12 7 3 3 6 9 14 16 19 20 20 20 20 20 19 18 19 22 23 23 23 25 23 23 24 25 26 27 29 30 30 30 30 30 28 27 27 28 28 28 28 28 28 28 28 26 26 26 26 25 25 23
3 1 3 4 5 4 3 6 5 1 3 3 4 4 6 7 7 10 11 11 9 11 13 9 7 6 8 9 9 9 10 11 12 17 23 24 26 29 30 30 29 29 29 27 23 18 15 12 8 5 2 4 7 11 13 13 13 14 14 14 14 14 16 18 19 20 21 22 21 21 22 23 25 27 29 29 29 28 28 27 27 28 29 30 30 30 30 29 29 28 27 27 27 27 27 27 25
4 4 4 4 5 4 5 5 5 4 3 4 5 6 9 9 9 10 12 12 9 9 10 7 6 8 9 8 9 9 10 11 11 16 21 24 27 29 30 31 30 30 30 30 28 23 20 17 14 12 8 5 2 4 7 7 8 9 11 10 10 10 11 13 14 16 18 18 18 18 19 19 21 25 27 27 27 26 26 27 28 29 30 31 31 31 30 30 29 29 29 28 29 29 28 27 27
7 7 5 5 6 5 6 7 6 6 5 5 7 8 7 8 9 10 13 11 6 8 8 5 6 8 8 8 9 8 10 10 10 17 22 24 27 29 30 31 30 30 30 31 31 29 25 21 18 17 13 9 6 3 3 4 6 7 7 7 7 7 7 9 11 13 14 14 15 15 16 17 18 21 24 25 26 25 26 27 28 29 31 32 33 33 32 32 31 31 31 30 30 29 27 26 26
8 7 6 6 6 5 6 6 7 5 4 6 7 6 6 7 9 12 14 10 7 8 5 5 8 8 7 9 8 9 10 7 11 19 23 26 28 29 30 30 31 31 31 31 32 31 28 25 23 22 17 12 9 7 4 3 4 4 5 5 5 5 5 6 8 9 11 12 13 15 16 17 18 19 21 23 25 26 26 27 29 29 30 32 33 34 34 33 33 32 31 30 30 30 28 26 26
6 6 5 5 5 5 5 6 7 5 3 5 4 6 8 8 10 15 14 8 8 6 5 8 9 9 7 8 8 8 7 6 11 17 22 27 28 28 29 30 31 30 30 31 30 29 27 25 24 23 21 18 16 11 7 6 5 4 3 3 3 3 3 4 5 7 8 10 11 13 14 15 16 17 19 21 24 26 27 27 28 29 30 31 32 33 33 33 32 32 31 30 30 30 30 28 28
5 4 4 4 4 4 5 5 6 5 2 5 6 6 7 9 12 14 9 6 6 7 10 9 8 10 8 8 7 7 8 8 10 13 19 24 26 27 28 28 29 29 29 30 29 27 25 24 23 21 20 20 19 15 12 11 9 7 5 4 3 3 3 2 4 5 7 8 9 10 11 12 13 14 16 18 21 24 26 27 28 29 30 30 31 31 32 32 32 33 33 32 30 29 28 29 33
4 4 4 5 4 2 4 5 6 5 2 3 5 6 5 8 10 7 8 8 10 10 12 11 9 10 9 7 7 7 9 9 10 11 14 19 23 25 27 27 28 29 30 30 29 27 26 24 23 20 19 18 18 16 15 13 11 11 10 7 6 5 5 3 3 4 6 7 8 9 10 11 11 12 13 15 18 20 23 26 28 29 29 29 30 30 32 33 33 33 33 34 31 28 26 28 34
3 4 4 5 4 3 5 4 5 5 4 2 4 6 4 6 7 2 5 5 9 8 9 11 8 8 8 8 9 8 8 8 9 10 10 15 20 23 25 26 27 29 30 29 28 27 26 25 24 22 20 19 18 16 14 13 13 13 12 11 9 9 8 5 3 1 3 4 5 7 8 9 10 11 12 13 15 17 20 23 26 27 27 27 28 29 31 32 33 33 34 34 34 32 29 28 31
4 4 6 6 5 4 3 3 4 5 4 4 5 5 5 4 5 3 4 5 7 6 7 9 7 7 7 8 9 7 8 8 8 9 10 13 16 20 24 26 27 28 28 28 28 27 26 26 25 24 23 21 19 17 15 14 15 15 16 16 16 14 13 12 10 6 2 2 1 2 3 4 6 8 10 11 12 14 16 19 22 24 25 25 26 27 30 31 32 33 33 34 35 35 32 27 28
3 4 5 6 5 3 1 4 4 2 2 4 4 1 6 3 6 7 4 7 5 5 7 7 6 6 6 7 7 6 7 7 7 9 10 12 16 19 22 24 26 26 26 27 28 28 28 28 27 26 25 23 21 19 16 15 16 17 17 17 17 16 15 15 14 10 5 2 1 0 1 2 4 5 6 8 10 12 14 15 18 21 22 23 23 24 27 29 30 31 32 33 35 35 34 29 28
3 5 5 6 4 2 1 3 1 3 2 5 2 4 4 3 7 8 5 8 3 4 6 5 6 6 7 7 6 7 7 7 7 8 9 12 16 18 20 22 24 25 25 27 29 30 30 29 29 28 26 25 23 20 19 18 18 17 17 16 16 15 15 14 14 12 10 8 5 2 3 4 4 5 5 6 7 9 11 12 14 16 19 21 21 22 23 26 28 29 30 32 33 35 35 33 31
5 5 5 5 2 2 2 3 1 3 1 5 5 4 2 4 6 4 5 6 2 4 4 4 5 5 6 6 7 7 7 7 7 7 9 12 16 18 19 21 24 26 27 28 29 29 30 30 31 31 30 28 25 23 21 20 20 19 19 18 17 16 14 12 11 11 12 11 9 6 6 6 6 6 6 6 6 6 8 10 12 13 15 17 19 20 21 22 25 27 29 30 32 34 35 35 33
4 4 3 4 2 1 2 4 2 1 1 5 6 4 2 5 5 2 3 4 5 4 4 4 5 5 5 6 7 6 6 7 7 7 10 14 17 18 19 22 25 27 28 29 29 30 30 31 31 32 32 30 29 26 24 23 22 21 21 20 20 18 16 14 12 12 12 12 11 11 9 8 7 7 7 7 7 7 7 7 9 11 12 14 16 19 20 21 22 24 26 28 30 32 34 36 35
3 5 4 6 5 3 2 2 3 3 2 6 8 7 5 3 5 2 2 3 7 8 5 5 5 5 6 6 6 6 5 6 6 6 10 14 16 18 21 24 25 27 28 30 30 30 30 30 30 31 31 30 30 29 28 27 25 25 24 22 22 21 19 17 16 16 15 14 14 14 13 11 10 8 7 8 9 10 9 8 8 9 10 12 13 15 17 19 21 22 24 25 28 29 31 34 36
5 5 4 4 4 4 4 4 4 2 4 7 6 6 7 4 5 4 2 2 6 9 8 9 8 6 5 5 6 5 5 6 5 5 7 11 14 18 21 23 24 27 28 29 28 28 29 29 29 30 30 29 30 29 29 28 28 28 27 25 24 22 21 20 20 20 18 17 17 16 14 13 13 12 10 10 11 10 10 10 10 9 10 11 12 13 15 17 19 21 23 24 26 27 28 30 33
5 4 5 3 2 3 2 2 0 2 5 6 3 3 4 6 6 2 4 7 4 5 7 10 10 8 6 5 5 4 4 5 5 5 5 8 11 15 19 21 23 25 26 26 26 27 27 27 27 28 28 28 29 28 28 27 28 29 28 27 26 24 23 23 22 22 20 19 18 17 17 17 16 15 14 13 13 12 10 10 10 10 10 11 12 13 14 15 17 19 21 23 25 26 27 28 30
5 4 4 4 2 1 2 3 2 3 5 5 3 1 0 4 4 3 5 5 5 9 10 9 9 8 6 5 5 4 4 5 5 4 5 7 10 14 16 18 21 22 23 24 24 24 25 25 26 26 26 26 27 27 27 27 27 27 27 28 27 26 26 25 24 24 22 21 20 19 19 19 18 18 16 15 14 12 11 10 10 11 11 12 12 14 15 16 17 18 19 21 24 25 27 27 28
4 5 5 5 4 4 4 3 3 3 5 4 3 0 2 3 1 3 5 5 7 10 10 9 8 7 6 5 5 4 4 4 4 4 5 7 11 13 15 18 19 20 22 23 23 23 24 24 24 24 24 24 24 25 26 26 26 26 26 27 27 27 26 25 25 24 24 24 23 22 22 21 20 20 18 17 15 13 12 10 10 10 11 12 13 14 16 16 17 18 19 20 22 24 26 28 28
2 3 4 2 3 4 2 3 4 3 4 4 2 2 3 3 2 3 5 6 8 8 8 8 7 5 5 5 4 4 4 4 4 4 5 7 11 14 15 17 18 19 21 21 22 22 22 22 22 22 22 22 23 24 24 25 25 25 26 26 26 26 26 25 25 24 24 24 24 24 24 23 23 22 21 20 18 16 14 12 11 10 11 12 13 15 16 17 17 18 19 20 21 22 24 27 28
1 2 2 4 4 5 1 4 2 1 3 4 2 2 2 2 2 2 4 7 7 6 6 7 6 5 5 4 3 3 2 2 2 3 4 7 10 13 14 16 16 17 19 19 20 20 20 20 21 21 21 21 22 22 22 23 24 25 25 26 26 25 25 25 24 24 23 23 23 24 24 24 24 24 24 23 22 20 17 15 14 13 13 13 14 14 15 16 17 18 19 20 21 21 23 26 27
4 2 5 3 1 3 2 1 2 1 3 4 2 4 4 2 2 0 3 5 5 4 5 6 5 4 4 3 3 2 2 1 2 3 5 7 10 11 12 13 13 14 14 15 16 17 18 18 19 19 20 20 20 20 20 21 22 23 24 24 24 24 24 23 23 23 23 24 24 24 24 24 24 23 24 24 24 23 22 20 18 17 15 15 14 15 15 16 17 18 19 20 21 21 23 25 26
4 3 3 1 1 1 0 1 1 3 4 4 5 6 5 4 4 3 4 5 6 5 5 5 5 4 4 4 4 4 2 1 2 3 4 6 8 9 10 10 10 11 10 11 11 12 13 14 15 15 16 16 16 16 17 18 19 20 20 20 21 21 21 21 21 22 23 25 26 26 26 26 25 25 24 24 24 24 24 23 22 21 19 17 16 15 15 16 17 18 19 20 21 21 23 25 26
3 1 2 1 3 3 2 2 3 3 4 4 5 6 4 3 4 5 7 8 8 7 5 5 5 6 6 5 5 4 3 2 2 2 2 4 6 6 7 8 7 7 7 6 6 7 8 9 9 10 11 11 12 13 14 15 15 15 16 17 17 19 20 21 21 22 23 25 26 27 27 27 27 28 28 27 27 26 26 25 24 23 22 21 20 19 17 17 17 18 19 20 21 21 24 26 26
2 2 1 1 1 1 1 2 2 3 4 4 5 6 4 2 2 4 6 7 8 8 7 6 6 6 6 6 5 5 4 3 2 1 2 2 3 3 4 4 3 3 3 3 3 3 4 5 5 6 7 8 9 10 11 11 12 11 12 12 12 15 17 18 20 21 23 24 25 26 27 27 28 28 29 30 30 30 30 29 27 25 24 22 22 21 21 20 19 19 19 20 21 22 23 25 26
4 3 3 3 1 0 3 4 2 3 3 4 5 6 4 2 1 1 5 7 7 7 8 7 7 8 7 6 5 5 4 3 2 1 2 2 3 3 2 1 1 0 1 1 1 1 2 2 3 4 5 6 7 8 9 9 10 9 9 10 9 10 13 15 16 18 20 22 23 25 26 27 28 29 29 29 30 31 31 31 31 30 28 26 25 23 22 21 21 22 21 21 22 22 24 25 26
Wind_Direction
332 322 330 357 345 332 325 53 64 322 74 8 288 118 278 274 107 53 56 53 46 270 215 230 295 106 142 176 187 199 201 189 183 149 201 230 153 165 172 172 187 189 186 183 185 186 185 187 186 181 176 174 175 176 177 178 181 185 186 188 184 176 170 162 158 158 157 156 156 155 152 150 144 139 138 141 143 143 144 144 142 135 130 131 133 128 120 116 115 116 104 94 100 107 101 88 79
344 338 353 350 333 340 308 80 77 328 49 5 294 130 266 348 53 89 113 119 173 222 203 221 331 3 310 177 169 169 249 219 174 157 199 161 142 166 169 172 187 191 192 186 186 186 186 187 186 184 179 176 176 178 180 182 185 186 189 190 181 172 166 164 164 164 164 164 161 158 157 151 145 144 144 147 150 149 148 151 146 137 136 138 136 129 121 123 122 119 117 109 113 125 115 85 67
358 356 5 357 337 43 351 41 86 77 56 33 291 277 24 46 77 145 154 157 187 192 145 197 355 335 32 23 114 132 251 258 123 108 81 151 157 176 175 175 186 193 195 189 189 188 187 187 187 187 183 179 178 180 181 184 188 188 189 182 172 167 167 170 170 170 171 169 164 161 160 154 152 152 156 155 153 151 150 153 147 143 145 140 133 127 123 127 126 109 129 136 128 135 145 73 8
9 5 353 4 22 26 40 45 130 116 63 229 289 302 17 99 139 158 181 182 178 143 99 112 28 252 118 31 242 155 246 292 150 143 138 182 189 189 178 173 184 195 195 192 192 190 189 188 188 189 186 183 180 182 183 186 189 189 187 176 169 170 172 175 175 176 176 172 168 166 164 163 161 163 166 155 151 151 151 152 149 151 147 138 129 124 127 133 118 96 223 162 140 134 158 292 317
5 4 339 6 63 19 70 62 79 91 256 200 135 296 319 117 105 67 240 182 167 134 138 129 55 290 103 230 213 142 231 286 164 143 152 188 190 183 176 171 182 194 195 192 193 192 191 189 190 190 188 186 182 184 186 189 190 189 187 177 174 175 178 181 180 181 178 174 171 170 171 172 172 173 165 151 154 156 152 152 151 151 138 131 131 126 128 139 97 7 272 163 153 160 170 304 315
359 2 344 97 112 146 84 49 322 296 242 175 144 258 202 116 113 37 3 93 153 133 143 123 151 324 341 261 190 167 210 145 144 144 157 175 168 167 173 172 179 194 196 192 195 195 194 191 191 192 190 187 185 186 188 190 191 189 187 182 180 180 182 184 184 182 177 175 174 175 177 178 178 174 163 157 162 159 155 153 150 144 136 134 129 126 122 96 355 332 287 178 206 212 306 315 319
350 357 14 55 347 62 86 174 235 247 248 179 155 210 149 126 123 62 1 25 9 25 83 189 127 81 270 279 299 266 81 136 159 151 160 163 159 160 170 174 177 190 197 194 196 197 198 194 193 194 192 190 189 189 189 191 191 189 188 187 185 185 185 185 184 181 178 177 177 181 182 185 183 172 165 166 164 160 156 150 146 146 145 144 135 131 122 98 82 30 326 214 231 235 317 324 323
339 339 63 79 15 20 76 263 247 210 252 228 165 157 136 142 115 76 328 316 319 276 11 281 91 79 274 335 314 279 46 112 145 147 152 156 158 155 169 175 177 187 196 199 196 199 201 198 196 195 194 193 193 193 193 192 191 189 190 190 190 191 188 185 185 182 181 181 181 186 187 190 184 172 172 172 167 164 163 159 157 160 161 160 157 152 142 129 119 107 99 247 243 249 327 332 328
2 160 34 73 47 4 355 308 288 241 266 280 117 102 119 124 106 103 281 320 316 151 226 219 114 112 285 349 275 274 37 133 141 146 152 160 160 154 170 177 180 186 192 200 201 201 203 202 201 198 197 196 195 197 195 193 192 191 194 193 193 196 193 187 186 185 184 185 187 189 192 194 184 176 177 174 171 171 175 180 180 182 183 187 193 189 180 169 163 172 197 249 245 288 339 344 44
18 97 62 75 57 6 332 307 286 296 295 301 35 76 112 99 82 90 152 291 290 111 242 209 116 181 276 323 264 281 217 166 155 154 159 166 163 159 172 178 183 187 189 196 204 205 204 204 204 202 201 198 198 199 196 194 193 193 197 197 197 197 195 192 189 188 189 188 191 193 196 196 186 180 180 180 181 181 185 191 197 205 208 210 213 219 209 182 188 203 214 239 243 333 356 92 121
26 346 83 75 36 4 293 291 287 292 293 317 15 340 88 97 72 26 28 324 306 49 252 193 79 234 277 289 265 295 172 175 180 170 166 169 167 166 172 177 183 190 192 194 202 206 204 204 205 207 206 202 201 201 198 196 196 197 199 199 200 201 197 197 195 193 193 192 194 197 201 197 187 183 184 190 192 192 195 200 207 217 223 218 209 206 197 184 191 193 208 231 261 10 105 126 127
57 333 61 77 28 222 247 284 294 297 318 359 6 305 356 88 77 6 24 1 330 1 290 244 313 188 75 278 272 226 162 180 208 186 170 173 168 167 171 175 180 191 196 197 201 205 205 204 203 206 208 207 205 203 201 198 200 201 203 202 202 206 201 201 202 199 197 196 199 200 204 197 187 190 193 196 199 199 205 210 218 228 222 210 201 194 191 192 186 185 212 228 259 85 132 133 131
74 347 70 83 215 242 286 289 294 322 344 348 209 280 7 79 119 179 75 356 334 11 295 228 137 81 226 264 291 252 179 194 205 185 178 177 167 165 172 174 179 190 198 201 203 204 206 205 203 205 207 209 209 207 205 202 203 204 206 207 206 209 207 205 206 206 202 200 203 204 205 199 190 194 197 199 202 206 215 220 226 231 206 193 196 188 185 189 182 195 215 222 193 142 141 139 137
85 161 93 252 287 337 275 283 300 6 318 263 222 284 348 104 188 149 89 346 305 225 221 230 155 83 266 276 313 281 212 196 186 180 180 176 171 167 174 178 181 187 196 203 205 206 207 207 206 205 206 207 209 209 208 206 206 207 209 210 210 211 212 209 208 210 209 206 208 207 206 201 196 198 200 203 208 212 218 222 227 225 196 183 187 183 183 185 186 207 217 219 188 157 150 146 143
136 103 96 90 330 340 250 237 227 122 265 251 217 231 7 287 160 93 130 217 274 223 212 271 142 146 237 208 254 252 206 194 185 179 176 173 175 172 178 183 186 187 193 204 207 210 209 209 209 208 208 208 209 210 210 208 208 209 210 212 213 213 213 212 212 214 213 211 212 211 207 203 201 203 205 208 212 216 218 224 230 230 203 181 184 183 185 186 190 213 215 209 187 160 158 153 149
112 98 70 38 303 332 256 235 99 72 276 248 243 161 58 318 106 84 245 169 275 276 263 267 191 213 230 216 240 239 197 190 184 180 175 174 175 175 183 188 192 191 194 203 208 213 212 211 211 210 211 211 211 212 212 211 209 210 211 213 214 214 214 214 215 216 216 215 215 211 206 204 203 206 209 211 215 219 222 230 234 236 214 185 188 187 186 188 192 211 204 192 180 163 163 159 156
64 78 65 338 242 228 233 242 23 358 263 269 285 101 97 315 337 14 283 99 270 282 273 242 235 237 232 248 256 239 187 182 180 178 176 175 176 178 185 189 193 196 198 204 209 213 214 214 213 212 213 214 214 214 214 213 211 211 212 214 215 216 215 215 217 217 217 217 214 208 206 205 205 208 212 214 217 223 228 234 236 239 224 197 194 192 190 191 196 209 195 181 177 166 166 163 164
59 82 109 236 223 215 211 226 300 241 271 293 278 107 97 346 317 332 317 318 283 287 282 254 261 263 252 261 269 230 183 179 180 178 177 177 178 183 192 194 196 201 203 207 211 212 214 217 217 216 215 215 216 217 216 215 214 212 213 215 214 215 215 216 217 218 217 215 212 208 207 208 208 211 214 217 221 227 232 236 238 240 230 211 201 196 195 194 201 207 190 182 177 169 174 171 169
101 133 155 226 213 227 245 274 318 338 282 299 318 19 55 318 284 326 278 284 295 290 285 285 280 272 268 275 275 192 188 182 186 186 184 187 188 192 198 200 202 207 209 211 215 214 214 215 218 220 218 216 216 218 217 215 214 213 214 216 215 215 215 215 215 217 216 213 211 210 210 210 212 214 217 222 227 232 234 236 240 240 233 223 211 201 198 197 202 204 192 185 178 177 183 177 176
173 142 186 241 226 257 287 295 310 314 285 324 329 344 350 293 277 342 262 278 285 264 267 286 283 270 266 282 246 181 191 189 196 197 199 202 203 205 205 206 209 215 219 221 222 219 215 214 215 219 221 218 216 216 216 215 215 215 216 216 216 216 215 216 215 216 216 213 211 211 212 213 216 218 221 227 231 234 234 234 237 238 233 228 220 207 202 202 204 204 197 188 180 188 190 185 187
183 146 192 235 230 265 277 289 305 314 344 356 313 330 323 288 285 295 273 285 280 254 242 243 266 271 256 268 274 187 187 197 206 210 216 216 215 217 218 220 224 230 232 230 227 224 219 215 214 216 220 220 217 215 214 214 214 215 216 217 217 217 217 217 216 215 216 215 213 213 214 217 219 221 225 228 231 232 232 231 232 233 230 228 224 213 206 207 208 205 200 188 184 196 195 195 195
188 202 207 226 233 267 274 291 307 312 334 336 323 318 298 301 311 267 254 270 263 252 241 231 248 266 260 262 279 234 196 205 212 218 224 225 224 224 227 229 233 238 235 229 229 229 225 221 218 216 217 219 219 217 215 214 215 215 216 217 218 219 219 218 218 216 216 217 217 217 217 219 221 223 226 228 230 231 230 231 230 230 229 227 225 217 210 211 213 209 201 189 188 200 203 203 198
212 258 229 229 234 247 271 296 305 310 309 298 294 279 278 329 302 254 215 251 257 255 248 248 251 260 268 268 272 264 245 228 217 222 227 228 228 228 230 230 231 234 232 230 232 231 227 225 222 218 216 216 218 218 216 215 215 217 217 218 219 220 220 219 219 219 219 219 219 219 219 220 221 223 225 227 229 230 230 230 230 230 230 227 224 218 213 214 217 214 204 191 193 203 209 212 205
205 265 254 243 246 251 283 303 307 309 280 262 282 302 296 282 286 287 249 258 264 265 255 257 263 267 276 278 260 257 259 254 244 241 238 234 234 235 236 234 235 235 231 232 233 229 226 226 224 220 217 216 216 216 216 215 215 217 217 218 219 221 221 220 221 222 221 222 222 222 222 222 222 222 224 227 228 228 229 228 229 230 230 228 224 219 216 215 219 220 209 197 199 206 211 216 213
224 256 260 272 286 285 302 305 301 302 280 271 296 296 270 240 265 296 274 273 274 271 266 261 269 278 279 275 266 256 254 259 262 261 254 246 243 241 239 239 237 231 230 235 233 230 228 226 223 221 220 218 216 215 215 215 214 214 215 216 218 220 221 222 224 224 224 224 224 225 225 224 222 223 225 226 227 228 228 227 227 230 231 229 223 218 217 217 219 221 215 205 206 210 213 215 214
267 317 318 328 310 295 307 307 294 291 282 273 280 281 271 238 265 282 263 266 274 280 284 271 275 282 275 267 263 257 254 257 263 267 267 260 248 237 237 239 233 229 234 236 233 233 232 225 221 222 223 221 218 216 215 215 214 213 214 216 217 218 221 223 225 226 226 225 226 227 227 227 225 225 226 227 227 227 227 226 228 230 232 230 223 218 217 218 220 221 216 208 209 214 215 215 215
316 3 336 317 307 300 305 301 287 282 275 260 245 267 273 235 206 270 261 259 274 297 297 284 279 273 273 266 259 263 261 256 262 268 272 268 245 231 235 233 230 234 235 233 234 236 233 226 222 223 224 223 220 217 217 216 216 215 215 217 217 218 220 221 224 226 227 227 227 228 228 228 227 227 227 227 227 226 226 226 229 230 231 230 224 219 218 220 222 223 219 212 212 216 218 219 218
339 4 336 313 319 311 293 283 278 277 274 243 205 250 279 252 185 248 263 268 284 302 295 292 285 268 271 273 278 290 279 285 303 316 308 303 290 250 245 245 242 240 234 233 237 235 230 228 226 224 223 223 221 219 218 218 218 218 217 217 218 219 219 219 222 225 227 227 228 228 228 228 227 227 227 227 225 225 226 227 230 231 231 229 224 220 220 222 224 226 225 219 218 218 220 222 221
329 353 336 304 330 312 282 271 264 261 260 211 161 247 292 252 226 242 257 273 293 299 288 289 284 272 277 292 307 312 328 357 14 21 17 16 22 22 19 10 327 273 255 248 245 237 233 233 230 226 223 222 221 221 220 219 219 219 219 219 219 219 219 220 222 223 225 226 226 225 226 227 226 226 226 225 225 225 227 228 230 231 231 228 225 221 220 223 223 222 222 221 219 217 218 220 220
319 337 357 292 341 305 275 264 258 264 253 179 145 216 278 248 252 253 260 276 290 291 283 281 283 289 307 316 317 345 24 33 36 31 27 29 32 34 34 32 31 21 345 289 269 259 246 236 232 229 223 222 223 222 221 221 221 221 222 222 222 221 221 221 222 222 223 223 223 223 225 226 225 226 225 224 224 225 227 228 231 232 230 228 225 222 221 222 220 217 218 218 217 217 217 218 219
300 319 117 275 304 278 281 282 285 292 274 166 150 204 259 254 267 269 272 278 276 286 285 281 292 316 324 323 342 34 46 42 39 33 30 30 31 34 35 34 37 38 38 35 344 291 258 237 230 228 223 222 223 222 223 223 223 223 224 225 224 224 223 224 223 222 223 223 223 223 224 225 225 225 225 224 224 225 226 228 230 231 229 227 225 223 222 221 219 217 218 217 215 215 216 217 220
281 287 312 283 200 263 295 294 286 251 270 58 144 212 261 258 268 272 277 284 288 293 283 287 320 329 330 359 34 56 50 40 39 34 30 31 33 35 36 36 37 38 41 44 43 31 267 233 227 227 223 222 223 223 223 224 224 224 225 226 227 226 224 224 225 224 224 224 224 223 223 224 224 224 224 225 225 226 227 229 230 229 227 226 225 223 221 220 219 218 220 220 215 212 212 213 217
302 195 241 258 229 269 300 300 299 156 133 354 211 234 271 264 265 268 277 287 298 293 282 302 350 338 13 52 55 57 45 38 36 30 28 32 35 38 39 39 40 41 42 45 52 60 65 87 190 213 216 218 222 221 220 221 222 223 224 227 229 228 226 225 225 224 223 223 223 222 222 222 222 223 224 225 226 227 228 230 230 227 226 225 224 222 221 221 220 219 219 220 219 215 211 210 212
300 250 224 247 243 247 285 300 310 106 137 257 252 236 248 262 273 280 285 286 290 285 285 320 5 27 64 71 62 57 50 44 34 26 27 31 37 41 43 44 44 45 46 49 56 65 69 66 69 77 113 196 215 216 212 212 212 212 215 220 225 225 225 225 225 224 223 223 223 222 222 222 222 223 224 225 226 227 229 231 230 227 226 225 223 222 222 222 222 222 219 217 219 218 215 211 211
239 250 251 267 252 244 269 278 283 285 263 265 278 263 258 270 278 280 277 273 274 275 288 332 28 71 80 73 66 62 55 52 37 29 31 35 39 41 44 47 47 48 48 50 56 63 68 63 58 56 50 46 60 188 190 188 188 193 198 203 211 214 218 221 222 223 222 224 226 226 227 226 224 224 225 225 225 226 228 230 230 228 227 226 224 223 223 222 221 222 221 218 217 219 221 219 214
222 239 244 254 260 260 262 261 265 281 290 282 274 270 271 278 279 279 275 271 269 276 299 4 69 86 83 74 71 65 58 55 39 36 38 39 41 43 45 46 49 51 51 52 55 57 60 60 58 56 49 39 41 86 145 150 154 161 169 180 189 194 206 212 216 221 224 228 233 235 237 236 233 230 229 229 229 229 230 232 231 229 228 227 225 223 223 223 223 223 222 220 216 216 220 221 216
233 251 258 254 262 271 269 273 279 300 309 265 261 287 298 292 290 283 282 294 305 296 325 67 88 79 72 75 71 66 65 54 43 42 39 40 42 44 45 45 48 52 52 53 55 55 56 58 58 58 59 59 55 57 63 80 104 119 128 142 151 160 184 200 207 217 225 232 237 239 240 240 239 237 237 237 236 236 235 235 233 231 229 228 228 228 228 228 227 226 224 220 219 216 215 215 213
243 245 260 270 264 265 273 277 284 320 335 265 296 337 312 299 289 281 289 323 333 335 71 88 86 79 71 71 66 65 68 51 45 42 37 38 39 41 43 43 45 46 48 52 54 56 57 58 58 58 61 64 64 63 63 63 65 71 90 112 128 149 174 201 207 213 225 230 234 237 238 240 239 239 241 242 242 241 239 237 235 234 232 230 230 231 231 230 228 227 224 220 219 219 217 212 206
264 271 285 285 273 282 292 294 312 354 358 280 314 324 297 287 280 291 321 38 38 42 80 83 78 81 69 63 63 61 62 48 43 40 36 36 35 37 40 40 43 44 46 50 53 57 58 58 58 59 60 60 61 63 64 65 68 72 79 99 125 145 153 196 221 225 236 239 243 246 247 249 248 247 246 245 245 244 242 241 239 238 236 234 231 230 230 229 228 227 225 222 219 216 218 214 209
274 273 281 280 286 311 290 303 331 338 286 265 306 310 299 281 282 338 30 78 79 60 72 74 73 81 74 69 65 56 59 50 44 42 35 35 35 35 36 37 40 43 43 45 48 52 54 56 59 60 60 60 61 63 62 59 63 68 72 84 96 107 118 142 194 215 231 238 243 249 253 257 257 256 254 252 251 250 249 247 245 242 240 238 234 232 231 230 229 229 228 225 219 213 213 215 212
269 225 219 253 270 249 239 274 321 324 317 341 10 342 310 267 271 56 66 67 74 66 71 72 66 76 81 75 64 54 57 54 50 48 36 36 37 35 35 37 41 43 42 42 45 48 52 56 58 60 61 62 64 66 67 66 66 65 64 65 65 68 71 62 40 286 243 238 242 246 253 259 263 266 265 263 260 257 256 254 251 247 244 242 239 236 236 235 233 232 230 227 222 218 217 217 214
299 238 210 212 210 209 234 326 358 14 341 332 40 9 293 287 291 218 135 63 59 59 65 75 69 67 72 68 62 54 51 52 52 52 46 42 41 41 40 38 40 42 43 45 47 50 54 57 59 59 59 60 61 65 71 75 76 72 68 63 57 53 48 37 26 9 309 268 260 242 250 265 274 276 274 272 267 263 262 260 258 255 252 249 245 242 241 240 238 236 234 230 228 226 223 221 219
301 250 189 162 143 130 53 19 23 51 259 291 62 109 267 310 295 261 137 90 73 68 63 70 69 59 63 63 61 53 46 44 45 48 47 44 43 44 42 40 41 42 45 50 52 52 53 57 60 60 58 57 57 60 67 73 76 76 75 71 63 55 48 40 37 40 42 21 6 226 303 323 310 305 294 285 279 273 269 266 264 262 260 257 253 249 245 244 244 242 240 237 235 233 228 225 225
249 239 142 110 86 74 66 72 69 227 248 315 324 189 255 277 256 257 122 102 88 82 72 65 69 64 65 63 55 52 46 38 38 41 40 40 42 44 44 43 45 46 47 50 53 53 54 55 57 59 59 57 55 57 62 67 70 73 73 72 68 61 53 47 46 51 53 44 34 17 351 346 339 338 329 313 301 290 283 277 273 269 266 264 261 257 253 252 251 248 245 242 239 237 232 230 231
236 222 135 98 106 165 164 123 201 260 17 314 276 185 241 265 258 266 120 134 182 138 117 94 89 79 74 68 55 49 46 40 34 37 37 35 37 40 44 45 47 49 49 49 51 54 56 56 57 57 56 55 54 54 58 62 67 69 69 67 64 61 57 55 53 50 50 47 44 32 357 341 333 333 341 343 335 320 306 294 286 279 275 271 268 266 262 259 256 253 250 247 243 241 238 236 235
221 173 104 45 53 148 134 137 154 7 39 258 248 180 191 266 283 308 121 179 202 164 137 117 103 87 76 68 59 45 41 44 31 31 39 38 39 40 43 46 46 47 49 51 51 52 55 56 57 56 54 54 54 53 54 57 61 63 63 61 57 54 53 53 53 49 44 41 41 37 28 18 358 334 329 335 338 337 330 317 305 295 288 283 277 273 269 265 262 259 256 253 250 247 244 241 239
126 88 52 18 5 23 52 105 102 60 295 251 233 199 187 268 291 231 192 208 171 153 150 140 111 83 72 60 58 45 38 48 34 28 36 40 45 45 46 46 44 44 47 49 49 50 52 54 55 55 53 53 54 53 53 53 56 58 58 57 55 50 46 44 43 40 35 31 28 25 26 29 28 19 0 345 338 331 322 318 317 311 304 297 289 282 277 273 270 267 263 260 256 253 250 247 244
96 77 65 31 340 7 30 8 48 97 252 261 243 199 178 216 264 233 286 323 148 148 159 151 123 92 77 62 59 47 41 49 37 27 32 36 40 41 43 44 42 43 45 45 46 47 49 50 53 55 52 52 53 53 53 52 54 56 56 57 55 50 46 43 40 36 32 30 27 21 19 19 21 24 21 12 1 345 327 315 311 313 315 312 306 299 290 284 279 275 271 267 263 260 257 253 249
88 93 86 73 334 358 12 311 62 200 245 248 214 143 164 219 251 264 26 12 40 100 122 131 120 106 95 76 69 52 45 53 42 31 30 34 35 35 39 41 41 42 42 44 46 46 48 49 52 53 50 50 52 53 53 53 53 54 55 56 55 53 50 46 42 38 34 31 28 25 22 18 14 14 13 10 7 1 351 334 319 313 315 319 318 312 305 297 291 284 279 275 271 268 264 259 255
138 140 131 131 146 170 255 256 247 261 264 244 210 98 262 247 281 12 51 43 52 80 93 106 109 110 109 96 86 65 52 51 43 38 37 38 37 37 40 42 43 43 43 45 47 47 48 48 50 53 52 53 55 55 54 54 54 55 56 56 55 53 52 49 46 42 38 35 32 28 24 19 14 10 6 3 358 355 355 351 338 324 315 317 318 316 313 308 301 294 288 283 279 275 271 267 263
177 163 142 145 158 172 214 226 217 256 276 274 270 269 206 212 323 47 76 74 73 84 92 95 95 100 102 91 78 64 56 49 38 38 38 40 41 42 45 47 46 46 46 48 48 48 50 49 50 52 53 54 56 56 56 56 56 56 57 57 55 54 52 51 50 47 44 41 38 36 31 25 19 12 5 359 353 347 345 346 347 340 327 320 318 316 314 312 308 302 295 290 286 282 278 273 269
221 137 110 166 191 167 195 232 203 210 284 285 263 238 207 156 81 63 84 77 73 80 86 90 89 86 89 84 73 65 57 46 42 43 38 40 47 50 50 50 49 49 50 49 48 48 49 50 51 53 53 54 54 55 55 55 56 56 56 56 54 53 51 49 48 47 45 44 42 40 36 32 26 20 15 9 4 359 350 342 338 336 332 325 321 319 315 312 310 305 300 295 290 287 284 280 276
208 107 179 221 180 135 148 276 261 130 256 259 218 247 279 92 77 57 80 78 75 79 82 91 96 92 93 95 95 96 88 72 63 67 61 53 53 54 53 52 51 51 50 49 48 47 46 46 47 48 49 50 50 51 52 52 53 54 53 52 50 49 47 45 44 43 43 43 42 40 37 33 28 23 19 16 14 12 8 359 348 337 330 325 322 320 318 315 312 307 304 299 295 292 289 285 282
132 166 223 230 69 83 110 263 317 329 249 264 254 247 251 211 229 204 103 102 100 105 104 105 107 108 116 133 153 177 176 133 76 71 69 63 58 54 55 54 53 51 48 47 47 46 46 47 46 46 44 43 43 45 47 47 48 48 47 46 45 43 41 38 36 34 33 34 35 34 32 29 26 21 17 14 13 14 13 11 6 357 348 337 330 327 324 321 317 312 308 304 301 298 292 288 285
128 183 226 123 84 310 358 152 232 252 251 275 279 261 248 218 204 174 175 169 147 140 132 132 142 149 160 172 195 215 204 112 73 70 59 56 57 51 52 53 50 50 47 44 45 45 47 48 49 49 47 45 44 44 44 43 43 43 40 39 37 35 33 30 27 24 23 23 22 21 19 17 15 12 10 9 8 9 8 8 7 4 1 355 347 339 332 327 322 317 313 308 305 302 296 292 288
36 30 341 49 158 191 215 189 180 212 241 261 270 268 264 234 191 179 199 186 158 153 152 161 175 181 190 192 194 206 193 170 122 86 59 51 60 60 58 55 49 46 39 38 42 43 44 42 44 48 46 47 47 45 44 41 39 37 34 32 29 26 24 21 18 16 15 15 13 11 9 7 4 1 0 359 359 0 360 360 360 359 359 358 355 350 343 333 326 318 314 311 308 304 298 294 292
48 30 314 282 221 193 257 244 166 165 217 245 257 260 260 252 222 197 192 167 152 158 159 173 198 199 204 204 193 194 188 183 172 110 81 51 57 66 61 49 39 37 29 34 41 42 45 36 33 36 34 38 42 43 44 41 39 37 31 27 22 18 16 14 12 11 10 9 7 4 2 359 356 354 353 352 351 352 351 350 349 349 350 352 351 350 347 340 332 323 316 311 309 306 300 296 294
138 162 200 188 158 166 274 267 218 171 205 215 235 260 270 261 265 161 137 138 152 167 163 175 205 206 206 212 204 195 180 174 186 184 190 218 235 239 238 258 270 92 61 73 82 62 55 37 29 26 25 30 33 37 40 38 37 35 28 23 17 7 6 7 7 6 4 2 360 358 355 352 349 348 347 346 345 345 344 342 341 340 340 342 342 343 342 340 336 330 324 317 312 308 304 300 296